Zurück zum Katalog

STARLINK-3199

AktivKommunikationVLEO
NORAD 49760·PAYLOAD·🇺🇸 United States

Gestartet Dec 2, 2021 von Cape Canaveral Space Force Station

Loading…

Nächste Überflüge (nächste 24 Stunden)

TLE

AktuellSource: CelesTrak SupGP

Epoche: Sep 14, 2026, 13:07 UTC

1 49760C 21115AN  26257.54701389 -.00019556  00000+0 -57799-3 0  2579
2 49760  53.1599 357.2110 0001279  80.6739 326.0956 15.34389730    16

Verfolge STARLINK-3199 in Echtzeit mit AllMySat

Download on the App Store